period_start,C,m1,H,J0,J1,J2,J3,J4,J5,JA,JB,JC,JD,JJ,JK,JN,#
2015-10-03 00:01:19,0.01,0.01,0.00,23.91,28.12,30.93,14.49,47.96,1016.13,2035.00,3598.30,3292.00,3580.00,600.24,594.17,2.99,0000 0000 0000 0000 000000
2015-10-03 00:06:20,0.00,0.01,0.00,23.92,28.14,30.94,14.48,47.91,1016.10,2035.00,3598.06,3292.00,3579.97,599.75,593.69,3.04,0000 0000 0000 0000 000000
2015-10-03 00:11:21,0.00,0.01,0.00,23.96,28.15,30.90,14.49,48.10,1016.02,2034.98,3598.01,3291.97,3579.79,600.38,594.14,3.09,0000 0000 0000 0000 000000
2015-10-03 00:16:23,0.00,0.01,0.00,23.95,28.15,30.93,14.48,48.08,1016.05,2034.99,3598.00,3291.99,3579.58,599.94,593.72,3.14,0000 0000 0000 0000 000000
2015-10-03 00:21:24,0.01,0.01,0.00,23.99,28.17,30.99,14.40,47.98,1016.06,2034.99,3597.99,3291.97,3579.21,599.71,593.45,3.19,0000 0000 0000 0000 000000
2015-10-03 00:26:26,0.00,0.01,0.00,24.03,28.17,30.98,14.46,47.92,1016.04,2034.99,3597.96,3291.91,3579.01,600.06,593.62,3.24,0000 0000 0000 0000 000000
2015-10-03 00:31:27,0.02,0.02,0.00,24.01,28.17,30.98,14.49,47.84,1016.06,2034.96,3597.43,3291.41,3578.98,600.11,593.80,3.29,0000 0000 0000 0000 000000
2015-10-03 00:36:28,-0.00,0.02,0.00,24.03,28.17,31.01,14.38,47.92,1016.08,2034.88,3597.09,3291.12,3578.94,599.48,593.24,3.34,0000 0000 0000 0000 000000
2015-10-03 00:41:30,-0.02,0.02,0.00,24.06,28.18,30.98,14.48,47.94,1016.12,2034.61,3597.01,3291.05,3578.61,600.04,593.67,3.39,0000 0000 0000 0000 000000
2015-10-03 00:46:31,0.00,0.02,0.00,24.02,28.20,31.01,14.44,47.89,1016.07,2034.52,3597.00,3291.03,3578.24,600.05,593.68,3.44,0000 0000 0000 0000 000000
2015-10-03 00:51:32,-0.00,0.02,0.00,24.04,28.20,31.01,14.48,47.84,1015.95,2034.46,3596.99,3291.02,3578.07,600.01,593.64,3.49,0000 0000 0000 0000 000000
2015-10-03 00:56:34,-0.01,0.02,0.00,24.08,28.20,30.97,14.47,47.89,1015.72,2034.39,3596.97,3291.00,3578.02,600.58,593.75,3.54,0000 0000 0000 0000 000000
2015-10-03 01:01:34,-0.01,0.01,0.00,24.03,28.21,30.99,14.41,47.92,1015.73,2034.09,3596.55,3291.00,3578.00,599.57,592.89,3.59,0000 0000 0000 0000 000000
2015-10-03 01:06:36,0.00,0.01,0.00,24.06,28.22,31.02,14.45,47.81,1015.67,2034.07,3596.23,3290.99,3577.99,600.21,593.53,3.64,0000 0000 0000 0000 000000
2015-10-03 01:11:37,0.00,0.01,0.00,24.06,28.22,31.05,14.51,47.96,1015.68,2034.06,3596.03,3290.99,3577.98,600.15,593.46,3.69,0000 0000 0000 0000 000000
2015-10-03 01:16:39,-0.00,0.01,0.00,24.04,28.23,31.06,14.44,48.00,1015.65,2034.05,3596.00,3290.99,3577.92,599.74,593.14,3.75,0000 0000 0000 0000 000000
2015-10-03 01:21:40,0.00,0.01,0.00,24.04,28.24,31.09,14.48,47.97,1015.64,2034.02,3596.00,3290.97,3577.41,599.94,593.33,3.80,0000 0000 0000 0000 000000
2015-10-03 01:26:41,0.00,0.01,0.00,24.06,28.25,31.10,14.37,47.83,1015.62,2034.01,3596.00,3290.92,3577.13,599.76,593.09,3.85,0000 0000 0000 0000 000000
2015-10-03 01:31:42,0.00,0.01,0.00,24.10,28.25,31.11,14.48,47.98,1015.58,2034.00,3595.94,3290.76,3577.02,599.80,593.03,3.90,0000 0000 0000 0000 000000
2015-10-03 01:36:43,0.01,0.02,0.00,24.07,28.25,31.11,14.45,48.13,1015.63,2034.01,3595.66,3290.56,3577.00,600.10,593.41,3.95,0000 0000 0000 0000 000000
2015-10-03 01:41:44,0.01,0.02,0.00,24.06,28.26,31.14,14.39,48.02,1015.64,2034.00,3595.10,3290.11,3576.99,599.82,593.27,4.00,0000 0000 0000 0000 000000
2015-10-03 01:46:46,-0.00,0.02,0.00,24.09,28.27,31.06,14.44,47.98,1015.64,2034.00,3595.10,3290.10,3576.97,599.98,593.36,4.05,0000 0000 0000 0000 000000
2015-10-03 01:51:47,0.00,0.02,0.00,24.04,28.27,31.10,14.49,47.99,1015.65,2034.00,3595.06,3290.12,3576.98,600.30,593.66,4.10,0000 0000 0000 0000 000000
2015-10-03 01:56:48,0.00,0.02,0.00,24.04,28.27,31.14,14.40,47.94,1015.66,2034.00,3595.00,3290.04,3576.81,599.84,593.17,4.15,0000 0000 0000 0000 000000
2015-10-03 02:01:49,0.00,0.02,0.00,24.08,28.27,31.15,14.47,48.09,1015.69,2034.00,3595.00,3290.03,3576.67,599.97,593.21,4.20,0000 0000 0000 0000 000000
2015-10-03 02:06:51,0.01,0.02,0.00,24.07,28.27,31.16,14.56,48.21,1015.69,2034.00,3595.00,3290.01,3576.19,600.43,593.87,4.25,0000 0000 0000 0000 000000
2015-10-03 02:11:52,0.00,0.02,0.00,24.05,28.27,31.18,14.52,48.11,1015.80,2033.99,3594.99,3290.00,3576.06,600.11,593.66,4.30,0000 0000 0000 0000 000000
2015-10-03 02:16:53,0.00,0.02,0.00,24.07,28.28,31.18,14.44,47.77,1016.03,2033.99,3594.95,3290.00,3576.01,599.88,593.32,4.35,0000 0000 0000 0000 000000
2015-10-03 02:21:54,0.00,0.02,0.00,24.05,28.30,31.18,14.47,47.72,1016.02,2033.98,3594.91,3290.00,3576.01,600.09,593.70,4.40,0000 0000 0000 0000 000000
2015-10-03 02:26:55,0.00,0.02,0.00,24.07,28.30,31.21,14.46,48.00,1015.91,2033.97,3594.71,3290.00,3576.00,600.10,593.45,4.45,0000 0000 0000 0000 000000
2015-10-03 02:31:56,0.00,0.02,0.00,24.07,28.30,31.23,14.50,48.12,1015.90,2033.97,3594.24,3289.98,3575.99,600.07,593.54,4.50,0000 0000 0000 0000 000000
2015-10-03 02:36:58,0.00,0.02,0.00,24.11,28.31,31.20,14.53,48.15,1015.99,2033.90,3594.02,3289.87,3575.95,599.90,593.34,4.55,0000 0000 0000 0000 000000
2015-10-03 02:41:59,0.00,0.02,0.00,24.11,28.32,31.21,14.39,47.89,1015.87,2033.90,3594.01,3289.86,3575.88,599.95,593.31,4.60,0000 0000 0000 0000 000000
2015-10-03 02:47:01,0.01,0.02,0.00,24.12,28.32,31.21,14.40,48.05,1015.87,2033.82,3594.00,3289.48,3575.42,599.98,593.36,4.65,0000 0000 0000 0000 000000
2015-10-03 02:52:02,-0.01,0.02,0.00,24.09,28.34,31.21,14.45,48.04,1015.73,2033.74,3593.99,3289.18,3575.11,599.92,593.33,4.70,0000 0000 0000 0000 000000
2015-10-03 02:57:03,0.01,0.02,0.00,24.07,28.35,31.23,14.41,47.89,1015.68,2033.59,3593.97,3289.05,3575.01,599.95,593.19,4.75,0000 0000 0000 0000 000000
2015-10-03 03:02:04,-0.01,0.02,0.00,24.11,28.35,31.25,14.40,47.92,1015.68,2033.47,3593.88,3289.01,3575.00,599.99,593.24,4.80,0000 0000 0000 0000 000000
2015-10-03 03:07:06,-0.01,0.02,0.00,24.13,28.37,31.27,14.55,48.18,1015.66,2033.26,3593.35,3289.00,3574.98,600.07,593.35,4.85,0000 0000 0000 0000 000000
2015-10-03 03:12:07,-0.00,0.02,0.00,24.13,28.37,31.26,14.46,48.15,1015.66,2033.12,3593.03,3289.00,3574.84,600.32,593.50,4.90,0000 0000 0000 0000 000000
2015-10-03 03:17:08,0.00,0.02,0.00,24.12,28.38,31.28,14.52,47.98,1015.65,2033.04,3593.01,3288.97,3574.60,600.20,593.45,4.95,0000 0000 0000 0000 000000
2015-10-03 03:22:09,0.01,0.02,0.00,24.13,28.40,31.26,14.44,47.91,1015.66,2033.01,3593.00,3288.84,3574.09,599.86,592.99,5.00,0000 0000 0000 0000 000000
2015-10-03 03:27:11,0.00,0.02,0.00,24.14,28.40,31.26,14.45,47.88,1015.66,2033.00,3592.97,3288.52,3574.00,599.91,593.18,5.05,0000 0000 0000 0000 000000
2015-10-03 03:32:12,0.01,0.02,0.00,24.12,28.41,31.28,14.47,47.88,1015.65,2033.01,3592.91,3288.21,3574.00,600.38,593.60,5.10,0000 0000 0000 0000 000000
2015-10-03 03:37:14,0.00,0.02,0.00,24.12,28.42,31.32,14.50,48.18,1015.70,2033.00,3592.60,3288.05,3574.00,600.01,593.25,5.15,0000 0000 0000 0000 000000
2015-10-03 03:42:15,0.01,0.02,0.00,24.16,28.42,31.34,14.46,48.14,1015.89,2033.00,3592.39,3288.03,3574.00,599.96,593.25,5.20,0000 0000 0000 0000 000000
2015-10-03 03:47:16,0.00,0.02,0.00,24.18,28.45,31.36,14.35,47.87,1015.90,2033.01,3592.11,3288.00,3573.98,599.78,593.04,5.25,0000 0000 0000 0000 000000
2015-10-03 03:52:17,0.00,0.02,0.00,24.19,28.45,31.34,14.41,47.91,1015.96,2033.00,3592.02,3288.00,3573.94,599.94,593.21,5.30,0000 0000 0000 0000 000000
2015-10-03 03:57:18,0.00,0.02,0.00,24.16,28.47,31.41,14.46,48.27,1016.00,2033.00,3592.01,3288.00,3573.73,599.96,593.35,5.35,0000 0000 0000 0000 000000
2015-10-03 04:02:20,0.00,0.02,0.00,24.18,28.48,31.44,14.42,47.98,1015.98,2033.00,3592.00,3287.99,3573.19,599.89,593.18,5.40,0000 0000 0000 0000 000000
2015-10-03 04:07:21,0.00,0.02,0.00,24.20,28.50,31.39,14.42,48.08,1015.92,2033.00,3591.99,3287.96,3573.01,599.71,592.99,5.45,0000 0000 0000 0000 000000
2015-10-03 04:12:22,0.00,0.02,0.00,24.17,28.50,31.46,14.51,48.06,1015.86,2033.00,3591.90,3287.84,3573.00,600.03,593.23,5.50,0000 0000 0000 0000 000000
2015-10-03 04:17:23,0.01,0.02,0.00,24.19,28.52,31.51,14.40,48.08,1015.91,2032.99,3591.46,3287.50,3573.00,599.73,592.93,5.55,0000 0000 0000 0000 000000
2015-10-03 04:22:24,0.01,0.02,0.00,24.18,28.52,31.49,14.52,48.01,1015.74,2032.97,3591.03,3287.08,3572.95,600.00,593.13,5.60,0000 0000 0000 0000 000000
2015-10-03 04:27:25,0.00,0.02,0.00,24.20,28.54,31.54,14.46,48.13,1015.66,2032.96,3591.00,3287.03,3572.81,600.04,593.14,5.65,0000 0000 0000 0000 000000
2015-10-03 04:32:26,0.01,0.02,0.00,24.22,28.55,31.54,14.52,48.06,1015.66,2032.96,3591.00,3287.00,3572.50,600.18,593.35,5.70,0000 0000 0000 0000 000000
2015-10-03 04:37:27,0.00,0.02,0.00,24.22,28.55,31.57,14.57,48.29,1015.66,2032.91,3590.99,3287.00,3572.02,600.20,593.21,5.75,0000 0000 0000 0000 000000
2015-10-03 04:42:29,0.03,0.02,0.00,24.20,28.55,31.58,14.44,48.10,1015.66,2032.82,3590.54,3286.57,3571.70,599.94,593.01,5.80,0000 0000 0000 0000 000000
2015-10-03 04:47:30,0.01,0.02,0.00,24.20,28.56,31.59,14.42,47.92,1015.65,2032.88,3590.01,3286.02,3571.29,599.87,592.85,5.85,0000 0000 0000 0000 000000
2015-10-03 04:52:31,-0.01,0.02,0.00,24.20,28.57,31.61,14.48,47.96,1015.65,2032.86,3590.00,3286.00,3571.09,600.02,593.08,5.90,0000 0000 0000 0000 000000
2015-10-03 04:57:33,-0.01,0.02,0.00,24.21,28.57,31.61,14.45,47.98,1015.66,2032.57,3589.99,3286.00,3571.01,599.93,593.11,5.95,0000 0000 0000 0000 000000
2015-10-03 05:02:34,-0.00,0.02,0.00,24.21,28.57,31.59,14.39,48.08,1015.65,2032.64,3589.98,3286.00,3571.01,599.75,592.81,6.00,0000 0000 0000 0000 000000
2015-10-03 05:07:36,-0.02,0.02,0.00,24.20,28.57,31.60,14.52,47.97,1015.64,2032.43,3589.88,3285.99,3571.00,600.39,593.45,6.05,0000 0000 0000 0000 000000
2015-10-03 05:12:37,-0.00,0.02,0.00,24.19,28.58,31.60,14.46,48.14,1015.64,2032.17,3589.51,3285.99,3570.99,600.01,593.08,6.10,0000 0000 0000 0000 000000
2015-10-03 05:17:38,-0.00,0.02,0.00,24.20,28.59,31.61,14.48,48.07,1015.64,2032.11,3589.12,3285.97,3570.97,600.17,593.24,6.16,0000 0000 0000 0000 000000
2015-10-03 05:22:39,0.00,0.02,0.00,24.20,28.60,31.62,14.48,47.99,1015.64,2032.11,3589.05,3285.94,3570.96,599.89,592.96,6.21,0000 0000 0000 0000 000000
2015-10-03 05:27:41,-0.00,0.02,0.00,24.19,28.60,31.61,14.49,48.09,1015.64,2032.05,3589.12,3285.92,3570.83,600.16,593.14,6.26,0000 0000 0000 0000 000000
2015-10-03 05:32:42,0.02,0.02,0.00,24.20,28.60,31.62,14.43,48.08,1015.64,2032.07,3589.09,3285.66,3570.36,599.85,592.88,6.31,0000 0000 0000 0000 000000
2015-10-03 05:37:44,0.00,0.02,0.00,24.22,28.60,31.63,14.53,48.06,1015.64,2032.01,3589.00,3285.16,3570.04,600.27,593.26,6.36,0000 0000 0000 0000 000000
2015-10-03 05:42:45,0.00,0.02,0.00,24.22,28.60,31.64,14.37,47.92,1015.64,2032.02,3589.00,3285.15,3570.05,599.55,592.69,6.41,0000 0000 0000 0000 000000
2015-10-03 05:47:46,-0.00,0.02,0.00,24.22,28.60,31.62,14.52,48.21,1015.64,2032.03,3588.99,3285.11,3570.03,600.19,593.20,6.46,0000 0000 0000 0000 000000
2015-10-03 05:52:47,-0.00,0.02,0.00,24.22,28.60,31.63,14.48,47.90,1015.64,2032.02,3588.99,3285.17,3570.01,600.30,593.26,6.51,0000 0000 0000 0000 000000
2015-10-03 05:57:48,0.00,0.02,0.00,24.22,28.60,31.63,14.41,47.98,1015.64,2032.01,3588.99,3285.13,3570.00,599.85,592.91,6.56,0000 0000 0000 0000 000000
2015-10-03 06:02:49,0.00,0.02,0.00,24.21,28.60,31.64,14.43,48.05,1015.64,2032.01,3588.98,3285.06,3570.00,600.20,593.16,6.61,0000 0000 0000 0000 000000
2015-10-03 06:07:51,0.00,0.02,0.00,24.21,28.60,31.62,14.46,47.83,1015.64,2032.00,3588.89,3285.04,3570.00,600.25,593.25,6.66,0000 0000 0000 0000 000000
2015-10-03 06:12:52,0.00,0.02,0.00,24.19,28.58,31.63,14.42,48.06,1015.64,2032.00,3588.67,3285.00,3569.99,600.00,593.10,6.71,0000 0000 0000 0000 000000
2015-10-03 06:17:53,-0.00,0.02,0.00,24.17,28.57,31.65,14.46,48.11,1015.64,2032.00,3588.84,3285.02,3569.99,599.89,593.02,6.76,0000 0000 0000 0000 000000
2015-10-03 06:22:55,0.00,0.02,0.00,24.20,28.57,31.63,14.44,47.94,1015.64,2032.00,3588.86,3285.04,3569.99,599.99,593.13,6.81,0000 0000 0000 0000 000000
2015-10-03 06:27:56,0.00,0.02,0.00,24.19,28.57,31.63,14.48,47.80,1015.64,2032.00,3588.53,3285.03,3569.99,599.98,593.18,6.86,0000 0000 0000 0000 000000
2015-10-03 06:32:57,0.00,0.02,0.00,24.18,28.55,31.63,14.40,47.88,1015.64,2032.01,3588.55,3285.05,3569.99,599.86,592.97,6.91,0000 0000 0000 0000 000000
2015-10-03 06:37:58,0.00,0.02,0.00,24.21,28.55,31.60,14.52,47.91,1015.64,2032.00,3588.15,3285.06,3569.98,600.72,593.72,6.96,0000 0000 0000 0000 000000
2015-10-03 06:42:59,0.00,0.02,0.00,24.20,28.55,31.60,14.41,47.87,1015.65,2032.00,3588.21,3285.03,3569.96,599.72,592.79,7.01,0000 0000 0000 0000 000000
2015-10-03 06:48:00,0.00,0.02,0.00,24.21,28.53,31.63,14.34,47.77,1015.65,2032.00,3588.28,3285.02,3569.91,599.66,592.77,7.06,0000 0000 0000 0000 000000
2015-10-03 06:53:02,0.00,0.02,0.00,24.22,28.52,31.58,14.49,47.98,1015.65,2032.00,3588.20,3285.05,3569.97,599.93,592.96,7.11,0000 0000 0000 0000 000000
2015-10-03 06:58:03,0.00,0.02,0.00,24.22,28.52,31.59,14.41,48.07,1015.65,2032.00,3588.33,3285.04,3569.95,599.93,592.99,7.16,0000 0000 0000 0000 000000
2015-10-03 07:03:04,0.00,0.02,0.00,24.19,28.51,31.56,14.42,48.05,1015.65,2032.01,3588.03,3285.01,3569.90,600.13,593.20,7.21,0000 0000 0000 0000 000000
2015-10-03 07:08:06,0.01,0.02,0.00,24.20,28.50,31.51,14.44,48.11,1015.65,2032.00,3587.99,3285.00,3569.41,600.07,593.20,7.26,0000 0000 0000 0000 000000
2015-10-03 07:13:07,0.01,0.02,0.00,24.19,28.50,31.52,14.42,48.17,1015.66,2032.00,3587.38,3285.00,3569.02,599.92,592.96,7.31,0000 0000 0000 0000 000000
2015-10-03 07:18:08,0.00,0.03,0.00,24.19,28.49,31.53,14.54,48.17,1015.66,2032.00,3587.01,3284.91,3569.00,600.33,593.40,7.36,0000 0000 0000 0000 000000
2015-10-03 07:23:10,0.01,0.03,0.00,24.17,28.47,31.50,14.52,47.98,1015.66,2032.00,3586.78,3284.56,3569.00,600.00,593.24,7.41,0000 0000 0000 0000 000000
2015-10-03 07:28:11,0.02,0.03,0.00,24.17,28.47,31.44,14.35,47.77,1015.66,2032.00,3586.11,3284.11,3568.86,599.91,593.05,7.46,0000 0000 0000 0000 000000
2015-10-03 07:33:12,0.01,0.03,0.00,24.15,28.45,31.44,14.37,48.01,1015.66,2032.01,3585.99,3284.03,3568.47,599.71,592.99,7.51,0000 0000 0000 0000 000000
2015-10-03 07:38:13,0.00,0.03,0.00,24.15,28.45,31.44,14.55,48.19,1015.67,2032.01,3585.92,3284.01,3568.12,600.24,593.35,7.56,0000 0000 0000 0000 000000
2015-10-03 07:43:15,0.01,0.03,0.00,24.17,28.44,31.45,14.51,48.02,1015.67,2032.02,3585.49,3284.00,3568.07,599.92,593.20,7.61,0000 0000 0000 0000 000000
2015-10-03 07:48:16,0.01,0.03,0.00,24.15,28.42,31.49,14.35,47.99,1015.66,2032.08,3585.09,3284.01,3568.16,599.89,593.04,7.66,0000 0000 0000 0000 000000
2015-10-03 07:53:17,0.01,0.03,0.00,24.14,28.42,31.47,14.40,47.98,1015.65,2032.25,3585.00,3284.00,3568.13,599.77,592.96,7.71,0000 0000 0000 0000 000000
2015-10-03 07:58:18,0.01,0.03,0.00,24.12,28.40,31.41,14.48,47.87,1015.65,2032.41,3584.97,3284.00,3568.16,600.06,593.16,7.76,0000 0000 0000 0000 000000
2015-10-03 08:03:19,-0.01,0.03,0.00,24.11,28.40,31.38,14.53,47.61,1015.66,2032.33,3584.97,3284.00,3568.01,600.12,593.46,7.81,0000 0000 0000 0000 000000
2015-10-03 08:08:21,0.03,0.03,0.00,24.11,28.39,31.31,14.46,47.75,1015.66,2032.49,3584.81,3284.00,3568.00,600.11,593.37,7.86,0000 0000 0000 0000 000000
2015-10-03 08:13:22,0.01,0.03,0.00,24.12,28.37,31.24,14.39,47.66,1015.68,2032.57,3584.17,3284.00,3568.00,599.91,593.06,7.91,0000 0000 0000 0000 000000
2015-10-03 08:18:23,-0.01,0.03,0.00,24.11,28.37,31.27,14.52,47.80,1015.72,2032.48,3584.06,3283.99,3568.00,600.03,593.32,7.96,0000 0000 0000 0000 000000
2015-10-03 08:23:25,0.00,0.03,0.00,24.11,28.36,31.25,14.40,47.76,1015.68,2032.42,3584.00,3283.98,3567.98,599.74,593.00,8.01,0000 0000 0000 0000 000000
2015-10-03 08:28:26,0.05,0.03,0.00,24.10,28.35,31.24,14.49,48.03,1015.65,2032.60,3583.72,3283.69,3567.78,600.02,593.29,8.06,0000 0000 0000 0000 000000
2015-10-03 08:33:27,0.05,0.04,0.00,24.08,28.35,31.28,14.40,47.79,1015.67,2032.91,3582.70,3283.06,3567.10,599.89,593.21,8.11,0000 0000 0000 0000 000000
2015-10-03 08:38:28,0.01,0.04,0.00,24.07,28.33,31.29,14.51,47.94,1015.68,2032.92,3582.01,3282.99,3566.98,600.17,593.54,8.16,0000 0000 0000 0000 000000
2015-10-03 08:43:30,0.01,0.04,0.00,24.05,28.32,31.27,14.37,47.64,1015.72,2032.97,3581.95,3282.97,3566.98,599.66,593.22,8.21,0000 0000 0000 0000 000000
2015-10-03 08:48:32,0.01,0.04,0.00,24.06,28.32,31.26,14.41,47.67,1015.72,2032.98,3581.65,3282.92,3566.89,600.09,593.48,8.26,0000 0000 0000 0000 000000
2015-10-03 08:53:33,0.00,0.04,0.00,24.06,28.31,31.26,14.45,47.57,1015.73,2032.98,3581.23,3282.94,3566.80,599.95,593.31,8.31,0000 0000 0000 0000 000000
2015-10-03 08:58:35,0.01,0.04,0.00,24.02,28.30,31.30,14.45,47.48,1015.77,2032.98,3581.01,3282.75,3566.49,599.91,593.50,8.36,0000 0000 0000 0000 000000
2015-10-03 09:03:36,0.00,0.04,0.00,24.04,28.30,31.29,14.47,47.60,1015.95,2032.98,3581.01,3282.59,3566.09,599.75,593.39,8.41,0000 0000 0000 0000 000000
2015-10-03 09:08:37,0.01,0.04,0.00,24.03,28.30,31.24,14.49,47.64,1015.96,2032.99,3581.00,3282.49,3566.06,600.07,593.72,8.46,0000 0000 0000 0000 000000
2015-10-03 09:13:38,0.01,0.04,0.00,23.99,28.28,31.25,14.51,47.54,1015.95,2032.99,3580.98,3282.51,3566.05,600.39,594.11,8.52,0000 0000 0000 0000 000000
2015-10-03 09:18:39,0.00,0.04,0.00,23.97,28.27,31.31,14.47,47.63,1016.03,2032.99,3580.89,3282.20,3566.00,599.88,593.57,8.57,0000 0000 0000 0000 000000
2015-10-03 09:23:41,0.01,0.04,0.00,24.00,28.27,31.32,14.51,47.52,1016.05,2032.99,3580.53,3282.08,3565.99,600.37,594.01,8.62,0000 0000 0000 0000 000000
2015-10-03 09:28:42,0.00,0.04,0.00,24.00,28.25,31.29,14.38,47.59,1016.12,2032.99,3580.01,3282.04,3565.99,599.98,593.67,8.67,0000 0000 0000 0000 000000
2015-10-03 09:33:44,0.00,0.04,0.00,23.97,28.25,31.24,14.54,47.47,1016.13,2032.99,3580.00,3282.03,3565.98,600.31,593.98,8.72,0000 0000 0000 0000 000000
2015-10-03 09:38:45,0.00,0.04,0.00,23.98,28.24,31.24,14.46,47.56,1016.13,2032.99,3579.98,3282.00,3565.83,600.10,593.95,8.77,0000 0000 0000 0000 000000
2015-10-03 09:43:46,0.01,0.04,0.00,23.97,28.22,31.22,14.54,47.66,1016.13,2032.99,3579.22,3282.00,3565.78,600.29,594.04,8.82,0000 0000 0000 0000 000000
2015-10-03 09:48:47,0.00,0.04,0.00,23.95,28.21,31.21,14.42,47.51,1016.13,2033.00,3579.00,3282.00,3565.68,600.00,593.78,8.87,0000 0000 0000 0000 000000
2015-10-03 09:53:49,0.00,0.04,0.00,23.94,28.20,31.19,14.48,47.52,1016.13,2033.00,3579.00,3282.00,3565.24,600.14,594.00,8.92,0000 0000 0000 0000 000000
2015-10-03 09:58:50,0.00,0.04,0.00,23.90,28.19,31.20,14.48,47.61,1016.13,2033.00,3578.97,3281.99,3565.17,599.97,593.95,8.97,0000 0000 0000 0000 000000
2015-10-03 10:03:51,0.00,0.04,0.00,23.91,28.17,31.18,14.48,47.70,1016.13,2033.01,3578.89,3281.99,3565.09,600.00,593.78,9.02,0000 0000 0000 0000 000000
2015-10-03 10:08:53,0.00,0.04,0.00,23.94,28.17,31.12,14.48,47.56,1016.13,2033.01,3578.84,3281.99,3565.03,600.01,593.79,9.07,0000 0000 0000 0000 000000
2015-10-03 10:13:54,0.00,0.04,0.00,23.88,28.16,31.16,14.46,47.67,1016.13,2033.01,3578.81,3281.99,3565.04,599.97,594.02,9.12,0000 0000 0000 0000 000000
2015-10-03 10:18:55,0.01,0.04,0.00,23.80,28.15,31.07,14.50,47.67,1016.13,2033.04,3578.44,3281.99,3565.06,599.90,593.93,9.17,0000 0000 0000 0000 000000
2015-10-03 10:23:56,0.00,0.04,0.00,23.81,28.13,31.01,14.49,47.67,1016.13,2033.12,3578.26,3281.99,3565.29,600.34,594.38,9.22,0000 0000 0000 0000 000000
2015-10-03 10:28:57,0.01,0.04,0.00,23.79,28.12,31.03,14.50,47.70,1016.13,2033.25,3578.07,3281.99,3565.28,600.16,594.22,9.27,0000 0000 0000 0000 000000
2015-10-03 10:33:59,0.01,0.04,0.00,23.70,28.10,30.90,14.43,47.71,1016.13,2033.38,3578.01,3281.99,3565.21,599.48,593.88,9.32,0000 0000 0000 0000 000000
2015-10-03 10:39:00,0.01,0.05,0.00,23.69,28.10,30.94,14.50,47.63,1016.13,2033.45,3578.03,3281.99,3565.13,600.05,594.28,9.37,0000 0000 0000 0000 000000
2015-10-03 10:44:01,0.03,0.05,0.00,23.69,28.08,31.01,14.48,47.62,1016.13,2033.60,3578.08,3281.99,3565.07,599.85,594.25,9.42,0000 0000 0000 0000 000000
2015-10-03 10:49:02,0.01,0.05,0.00,23.71,28.07,30.90,14.42,47.73,1016.13,2033.83,3578.03,3282.00,3565.19,599.87,594.16,9.47,0000 0000 0000 0000 000000
2015-10-03 10:54:04,0.01,0.05,0.00,23.69,28.06,30.95,14.43,47.64,1016.14,2033.83,3578.05,3282.00,3565.06,599.87,594.23,9.52,0000 0000 0000 0000 000000
2015-10-03 10:59:05,-0.00,0.05,0.00,23.60,28.05,30.92,14.53,47.70,1016.15,2033.94,3578.06,3282.00,3565.07,600.23,594.73,9.57,0000 0000 0000 0000 000000
2015-10-03 11:04:06,0.00,0.05,0.00,23.64,28.04,30.90,14.52,47.67,1016.15,2033.94,3578.01,3282.00,3565.08,599.98,594.44,9.62,0000 0000 0000 0000 000000
2015-10-03 11:09:07,-0.00,0.05,0.00,23.58,28.02,30.96,14.49,47.77,1016.14,2033.92,3578.00,3282.00,3565.03,600.10,594.62,9.67,0000 0000 0000 0000 000000
2015-10-03 11:14:09,0.00,0.05,0.00,23.49,28.01,30.87,14.52,47.77,1016.14,2033.93,3578.00,3282.00,3565.01,600.04,594.85,9.72,0000 0000 0000 0000 000000
2015-10-03 11:19:10,-0.00,0.05,0.00,23.56,28.00,30.92,14.51,47.82,1016.13,2033.95,3577.99,3282.00,3565.01,599.97,594.78,9.77,0000 0000 0000 0000 000000
2015-10-03 11:24:11,-0.00,0.05,0.00,23.56,28.00,30.89,14.51,47.67,1016.13,2033.96,3577.97,3282.00,3565.01,600.52,595.07,9.82,0000 0000 0000 0000 000000
2015-10-03 11:29:13,0.00,0.05,0.00,23.59,27.97,30.85,14.51,47.55,1016.13,2033.98,3577.99,3282.01,3565.04,600.12,594.69,9.87,0000 0000 0000 0000 000000
2015-10-03 11:34:14,-0.00,0.05,0.00,23.58,27.97,30.86,14.56,47.73,1016.13,2033.98,3577.97,3282.00,3565.04,600.19,594.76,9.92,0000 0000 0000 0000 000000
2015-10-03 11:39:15,0.00,0.05,0.00,23.47,27.95,30.86,14.42,47.77,1016.13,2033.99,3577.88,3282.00,3565.05,599.89,594.67,9.97,0000 0000 0000 0000 000000
2015-10-03 11:44:16,0.00,0.05,0.00,23.43,27.94,30.79,14.54,47.74,1016.13,2033.99,3577.69,3282.00,3565.01,600.16,594.86,10.02,0000 0000 0000 0000 000000
2015-10-03 11:49:17,0.01,0.05,0.00,23.47,27.92,30.83,14.43,47.57,1016.13,2033.99,3577.38,3282.00,3565.04,599.87,594.67,10.07,0000 0000 0000 0000 000000
2015-10-03 11:54:19,0.00,0.05,0.00,23.39,27.92,30.83,14.54,47.73,1016.13,2033.99,3577.02,3282.00,3565.05,600.22,595.16,10.12,0000 0000 0000 0000 000000
2015-10-03 11:59:20,0.00,0.05,0.00,23.39,27.90,30.78,14.46,47.77,1016.12,2034.00,3577.02,3282.00,3565.05,599.95,595.02,10.17,0000 0000 0000 0000 000000
2015-10-03 12:04:21,0.00,0.05,0.00,23.38,27.90,30.84,14.51,47.83,1016.12,2034.00,3577.00,3282.00,3565.03,599.94,594.94,10.22,0000 0000 0000 0000 000000
2015-10-03 12:09:22,-0.00,0.05,0.00,23.32,27.89,30.75,14.48,47.77,1016.13,2034.02,3577.00,3282.00,3565.02,599.78,594.92,10.27,0000 0000 0000 0000 000000
2015-10-03 12:14:24,0.00,0.05,0.00,23.40,27.87,30.80,14.51,47.69,1016.13,2034.02,3576.75,3282.00,3565.01,600.40,595.27,10.32,0000 0000 0000 0000 000000
2015-10-03 12:19:25,0.01,0.05,0.00,23.25,27.87,30.78,14.54,47.88,1016.11,2034.09,3576.17,3282.00,3565.01,599.97,595.25,10.37,0000 0000 0000 0000 000000
2015-10-03 12:24:26,0.01,0.05,0.00,23.27,27.87,30.73,14.55,47.88,1016.08,2034.14,3576.01,3281.98,3565.00,600.07,595.38,10.42,0000 0000 0000 0000 000000
2015-10-03 12:29:27,0.00,0.05,0.00,23.31,27.85,30.77,14.44,47.77,1016.01,2034.14,3576.01,3281.98,3565.00,599.66,594.71,10.47,0000 0000 0000 0000 000000
2015-10-03 12:34:28,0.01,0.05,0.00,23.23,27.85,30.72,14.53,47.91,1016.01,2034.28,3576.00,3281.97,3564.98,600.23,595.41,10.52,0000 0000 0000 0000 000000
2015-10-03 12:39:30,0.01,0.05,0.00,23.30,27.85,30.75,14.59,47.77,1016.01,2034.49,3575.98,3281.90,3564.92,600.38,595.44,10.57,0000 0000 0000 0000 000000
2015-10-03 12:44:31,0.01,0.05,0.00,23.19,27.85,30.74,14.52,47.85,1016.01,2034.45,3575.88,3281.64,3564.61,599.81,595.14,10.62,0000 0000 0000 0000 000000
2015-10-03 12:49:32,0.02,0.05,0.00,23.26,27.84,30.70,14.49,47.75,1016.03,2034.59,3575.36,3281.40,3564.50,600.01,595.23,10.67,0000 0000 0000 0000 000000
2015-10-03 12:54:34,0.00,0.05,0.00,23.20,27.82,30.76,14.54,47.67,1015.87,2034.49,3575.02,3281.08,3564.09,600.59,595.78,10.72,0000 0000 0000 0000 000000
2015-10-03 12:59:35,0.00,0.05,0.00,23.22,27.82,30.73,14.60,47.95,1015.98,2034.43,3575.00,3281.02,3564.01,600.05,595.23,10.77,0000 0000 0000 0000 000000